Weather History for K2V5 - January, 2014

Change the Weather History Date:

Tuesday, January 21, 2014

  Actual Average (KHEQ) Record (KHEQ)
Temperature  
Mean Temperature 38 °F -  
Max Temperature 62 °F 42 °F 60 °F (2014)
Min Temperature 13 °F 13 °F 12 °F (2014)
Degree Days  
Heating Degree Days 28    
Moisture  
Dew Point 9 °F    
Average Humidity 46    
Maximum Humidity 86    
Minimum Humidity 8    
Precipitation  
Precipitation 0.00 in - - ()
Sea Level Pressure  
Sea Level Pressure 30.15 in    
Wind  
Wind Speed 7 mph (WNW)    
Max Wind Speed 29 mph    
Max Gust Speed 36 mph    
Visibility 10 miles    
Events      
Averages and records for this station are not official NWS values.
T = Trace of Precipitation, MM = Missing Value Source: NWS Daily Summary

Daily Weather History Graph

Daily Weather History Graph

Search for Another Location

Airport or City:

Trip Planner

Search our weather history database for the weather conditions in past years. The results will help you decide how hot, cold, wet, or windy it might be!

Date:

Astronomy

Jan. 21, 2014 Rise Set
Actual Time 7:06 AM MST 4:54 PM MST
Civil Twilight 6:36 AM MST 5:24 PM MST
Nautical Twilight 6:03 AM MST 5:57 PM MST
Astronomical Twilight 5:31 AM MST 6:29 PM MST
Moon 10:30 PM MST (1/21) 9:36 AM MST (1/21)
Length of Visible Light 10h 47m
Length of Day
9h 48m
Waning Gibbous, 74% of the Moon is Illuminated
Jan 21
Waning Gibbous
Jan 23
Last Quarter
Jan 30
New
Feb 6
First Quarter
Feb 14
Full

Hourly Weather History & Observations

Time (MST) Temp. Windchill Dew Point Humidity Pressure Visibility Wind Dir Wind Speed Gust Speed Precip Events Conditions
12:15 AM 18.1 °F - 11.1 °F 74% 30.37 in 10.0 mi Calm Calm - N/A   Clear
12:35 AM 18.5 °F - 11.1 °F 73% 30.37 in 10.0 mi Calm Calm - N/A   Clear
12:55 AM 19.4 °F 14.3 °F 11.3 °F 71% 30.36 in 10.0 mi West 3.5 mph - N/A   Clear
1:15 AM 17.1 °F 11.7 °F 10.2 °F 75% 30.35 in 10.0 mi WSW 3.5 mph - N/A   Clear
1:35 AM 17.8 °F 12.5 °F 11.1 °F 75% 30.35 in 10.0 mi WSW 3.5 mph - N/A   Clear
1:55 AM 16.0 °F - 9.7 °F 76% 30.34 in 10.0 mi Calm Calm - N/A   Clear
2:15 AM 15.1 °F - 10.2 °F 81% 30.32 in 10.0 mi Calm Calm - N/A   Clear
2:35 AM 14.9 °F 7.5 °F 10.2 °F 82% 30.33 in 10.0 mi SW 4.6 mph - N/A   Clear
2:55 AM 14.5 °F 7.1 °F 10.0 °F 82% 30.32 in 10.0 mi WSW 4.6 mph - N/A   Clear
3:15 AM 14.9 °F 7.5 °F 10.2 °F 82% 30.31 in 10.0 mi West 4.6 mph - N/A   Clear
3:35 AM 14.9 °F 7.5 °F 10.4 °F 82% 30.30 in 10.0 mi WSW 4.6 mph - N/A   Clear
3:55 AM 15.4 °F - 11.1 °F 83% 30.29 in 10.0 mi Calm Calm - N/A   Clear
4:15 AM 14.5 °F 7.1 °F 10.4 °F 84% 30.28 in 10.0 mi West 4.6 mph - N/A   Clear
4:35 AM 13.6 °F 6.0 °F 9.5 °F 84% 30.27 in 10.0 mi WSW 4.6 mph - N/A   Clear
4:55 AM 13.1 °F 7.1 °F 9.5 °F 86% 30.26 in 10.0 mi West 3.5 mph - N/A   Clear
5:15 AM 13.6 °F - 10.2 °F 86% 30.24 in 10.0 mi Calm Calm - N/A   Clear
5:35 AM 14.9 °F - 11.1 °F 85% 30.22 in 10.0 mi Calm Calm - N/A   Clear
5:55 AM 15.1 °F 6.4 °F 11.1 °F 84% 30.21 in 10.0 mi WSW 5.8 mph - N/A   Clear
6:15 AM 14.7 °F 7.3 °F 10.8 °F 84% 30.21 in 10.0 mi WSW 4.6 mph - N/A   Clear
6:35 AM 13.5 °F - 10.0 °F 86% 30.20 in 10.0 mi Calm Calm - N/A   Clear
6:55 AM 14.0 °F - 10.4 °F 86% 30.19 in 10.0 mi Calm Calm - N/A   Clear
7:15 AM 13.6 °F - 9.7 °F 84% 30.18 in 10.0 mi Calm Calm - N/A   Clear
7:35 AM 14.5 °F - 9.7 °F 81% 30.17 in 10.0 mi Calm Calm - N/A   Clear
7:55 AM 15.6 °F 8.3 °F 11.3 °F 83% 30.16 in 10.0 mi West 4.6 mph - N/A   Clear
8:15 AM 21.7 °F 13.2 °F 16.9 °F 82% 30.16 in 10.0 mi West 6.9 mph - N/A   Clear
8:35 AM 26.4 °F 16.6 °F 18.3 °F 71% 30.15 in 10.0 mi WSW 10.4 mph - N/A   Clear
8:55 AM 28.4 °F 19.1 °F 18.9 °F 67% 30.15 in 10.0 mi WSW 10.4 mph - N/A   Clear
9:15 AM 31.6 °F 21.6 °F 18.5 °F 58% 30.14 in 10.0 mi West 13.8 mph - N/A   Clear
9:35 AM 35.8 °F 27.3 °F 18.9 °F 50% 30.14 in 10.0 mi West 12.7 mph - N/A   Clear
9:55 AM 39.9 °F 32.5 °F 18.1 °F 42% 30.14 in 10.0 mi WSW 12.7 mph - N/A   Clear
10:15 AM 43.9 °F 37.5 °F 15.8 °F 32% 30.14 in 10.0 mi West 12.7 mph - N/A   Clear
10:35 AM 47.5 °F - 15.8 °F 28% 30.12 in 10.0 mi West 11.5 mph - N/A   Clear
10:55 AM 52.0 °F - 12.9 °F 21% 30.12 in 10.0 mi WNW 15.0 mph 19.6 mph N/A   Clear
11:15 AM 55.4 °F - 8.1 °F 15% 30.11 in 10.0 mi WNW 16.1 mph 21.9 mph N/A   Clear
11:35 AM 59.5 °F - 2.8 °F 10% 30.09 in 10.0 mi NNW 21.9 mph 29.9 mph N/A   Clear
11:55 AM 61.0 °F - 0.3 °F 9% 30.08 in 10.0 mi NW 26.5 mph 33.4 mph N/A   Unknown
12:15 PM 61.2 °F - 0.3 °F 9% 30.07 in 10.0 mi NNW 24.2 mph 35.7 mph N/A   Unknown
12:35 PM 61.9 °F - 0.7 °F 9% 30.07 in 10.0 mi NW 26.5 mph 32.2 mph N/A   Unknown
12:55 PM 61.9 °F - -0.2 °F 8% 30.05 in 10.0 mi NW 25.3 mph 34.5 mph N/A   Unknown
1:15 PM 62.6 °F - 1.8 °F 9% 30.05 in 10.0 mi NNW 25.3 mph 31.1 mph N/A   Clear
1:35 PM 62.2 °F - 2.3 °F 9% 30.04 in 10.0 mi NW 28.8 mph 34.5 mph N/A   Clear
1:55 PM 62.1 °F - 2.3 °F 9% 30.04 in 10.0 mi NNW 25.3 mph 32.2 mph N/A   Clear
2:15 PM 62.2 °F - 2.8 °F 9% 30.04 in 10.0 mi NNW 23.0 mph 33.4 mph N/A   Clear
2:35 PM 61.5 °F - 0.3 °F 9% 30.04 in 10.0 mi NNW 24.2 mph 32.2 mph N/A   Clear
2:55 PM 61.2 °F - 1.8 °F 9% 30.04 in 10.0 mi NNW 25.3 mph 33.4 mph N/A   Clear
3:15 PM 60.3 °F - 2.8 °F 10% 30.04 in 10.0 mi NNW 18.4 mph 32.2 mph N/A   Clear
3:35 PM 59.9 °F - 2.5 °F 10% 30.05 in 10.0 mi NNW 20.7 mph 27.6 mph N/A   Clear
3:55 PM 58.6 °F - 3.9 °F 11% 30.06 in 10.0 mi NNW 21.9 mph 27.6 mph N/A   Clear
4:15 PM 57.2 °F - 4.5 °F 12% 30.06 in 10.0 mi NNW 15.0 mph - N/A   Clear
4:35 PM 55.0 °F - 4.1 °F 13% 30.06 in 10.0 mi NNW 12.7 mph - N/A   Clear
4:55 PM 51.6 °F - 3.9 °F 14% 30.07 in 10.0 mi NNW 8.1 mph - N/A   Clear
5:15 PM 47.5 °F - 5.5 °F 18% 30.07 in 10.0 mi NNW 6.9 mph - N/A   Clear
5:35 PM 43.7 °F - 5.9 °F 21% 30.09 in 10.0 mi North - - N/A   Clear
5:55 PM 42.8 °F - 6.3 °F 22% 30.09 in 10.0 mi North - - N/A   Clear
6:15 PM 37.9 °F 34.4 °F 6.6 °F 27% 30.10 in 10.0 mi WSW 4.6 mph - N/A   Clear
6:35 PM 39.6 °F 33.5 °F 7.5 °F 27% 30.10 in 10.0 mi WNW 9.2 mph - N/A   Clear
6:55 PM 39.4 °F 34.5 °F 7.9 °F 27% 30.10 in 10.0 mi WNW 6.9 mph - N/A   Clear
7:15 PM 40.3 °F 35.5 °F 9.3 °F 28% 30.10 in 10.0 mi NW 6.9 mph - N/A   Clear
7:35 PM 37.8 °F 31.8 °F 8.8 °F 30% 30.10 in 10.0 mi NW 8.1 mph - N/A   Clear
7:55 PM 35.1 °F 30.1 °F 8.8 °F 34% 30.10 in 10.0 mi West 5.8 mph - N/A   Clear
8:15 PM 39.2 °F 32.0 °F 12.2 °F 33% 30.10 in 10.0 mi NNW 11.5 mph 20.7 mph N/A   Clear
8:35 PM 42.1 °F 37.7 °F 11.1 °F 28% 30.11 in 10.0 mi WNW 6.9 mph - N/A   Clear
8:55 PM 39.4 °F 36.1 °F 11.3 °F 32% 30.11 in 10.0 mi WNW 4.6 mph - N/A   Clear
9:15 PM 37.8 °F 32.5 °F 11.8 °F 34% 30.11 in 10.0 mi NW 6.9 mph - N/A   Clear
9:35 PM 35.8 °F 30.9 °F 12.0 °F 38% 30.11 in 10.0 mi NNW 5.8 mph - N/A   Clear
9:55 PM 35.4 °F 29.7 °F 13.1 °F 40% 30.12 in 10.0 mi WNW 6.9 mph - N/A   Clear
10:15 PM 35.2 °F 29.5 °F 13.6 °F 41% 30.12 in 10.0 mi NW 6.9 mph - N/A   Clear
10:35 PM 34.3 °F 27.7 °F 13.6 °F 43% 30.11 in 10.0 mi NNW 8.1 mph - N/A   Clear
10:55 PM 32.9 °F 25.9 °F 13.8 °F 45% 30.11 in 10.0 mi North 8.1 mph - N/A   Clear
11:15 PM 34.5 °F 27.9 °F 14.7 °F 44% 30.11 in 10.0 mi NW 8.1 mph - N/A   Clear
11:35 PM 31.6 °F 28.3 °F 13.6 °F 47% 30.11 in 10.0 mi East 3.5 mph - N/A   Clear
11:55 PM 29.8 °F 23.0 °F 14.2 °F 52% 30.11 in 10.0 mi SW 6.9 mph - N/A   Clear